BAW117 EGKK-SKBO

Flight info

Callsign BAW117
Flight time N/A
Altitude 32000
Route NOVMA L620 SAM N19 ADKIK DCT GAPLI/M082F320 DCT OMOKO DCT 47N020W 43N030W/M082F340 38N040W 31N050W/M082F360 22N060W/N0482F360 DCT GOUDA DCT SILVA/N0481F380 UM576 PJG UL325 ALCOT UG431 STB UW1 LFA UW34 CUC DCT ENVAM ENVAM5E
Aircraft B77W/H-SDE1E2E3FGHIJ2J3J4J5M1RWXY/LB1D1

Departure

Time 2026-05-04 07:36
Airport London Gatwick Airport (EGKK)

Arrival

Time N/A
Airport El Dorado International Airport (SKBO)
Time Latitude Longitude Altitude Speed Heading
2026-05-04 06:40 51.15859 -0.17962 210 ft 0 kts 78°
2026-05-04 07:12 51.15895 -0.18098 223 ft 4 kts 155°
2026-05-04 07:12 51.15908 -0.18106 221 ft 0 kts 167°
2026-05-04 07:20 51.15878 -0.18095 223 ft 9 kts 167°
2026-05-04 07:20 51.15814 -0.18073 219 ft 9 kts 167°
2026-05-04 07:20 51.15750 -0.18051 216 ft 9 kts 167°
2026-05-04 07:20 51.15705 -0.17985 219 ft 9 kts 103°
2026-05-04 07:22 51.15754 -0.17571 218 ft 3 kts 78°
2026-05-04 07:22 51.15757 -0.17543 215 ft 3 kts 85°
2026-05-04 07:23 51.15760 -0.17510 219 ft 3 kts 76°
2026-05-04 07:23 51.15761 -0.17456 221 ft 6 kts 112°
2026-05-04 07:23 51.15720 -0.17462 219 ft 7 kts 207°
2026-05-04 07:23 51.15662 -0.17476 212 ft 11 kts 177°
2026-05-04 07:24 51.15583 -0.17454 217 ft 11 kts 168°
2026-05-04 07:24 51.15552 -0.17444 218 ft 0 kts 168°
2026-05-04 07:24 51.15529 -0.17436 215 ft 6 kts 168°
2026-05-04 07:25 51.15470 -0.17416 209 ft 0 kts 168°
2026-05-04 07:27 51.15469 -0.17416 209 ft 1 kts 168°
2026-05-04 07:27 51.15431 -0.17403 218 ft 8 kts 168°
2026-05-04 07:27 51.15377 -0.17384 216 ft 8 kts 168°
2026-05-04 07:28 51.15340 -0.17370 218 ft 5 kts 166°
2026-05-04 07:28 51.15315 -0.17361 220 ft 3 kts 166°
2026-05-04 07:28 51.15293 -0.17351 217 ft 3 kts 163°
2026-05-04 07:28 51.15272 -0.17337 218 ft 3 kts 154°
2026-05-04 07:29 51.15251 -0.17321 218 ft 3 kts 153°
2026-05-04 07:29 51.15231 -0.17303 217 ft 3 kts 150°
2026-05-04 07:29 51.15211 -0.17282 218 ft 4 kts 143°
2026-05-04 07:29 51.15193 -0.17249 218 ft 4 kts 123°
2026-05-04 07:30 51.15186 -0.17198 219 ft 5 kts 90°
2026-05-04 07:30 51.15193 -0.17133 212 ft 7 kts 79°
2026-05-04 07:30 51.15202 -0.17060 219 ft 7 kts 79°
2026-05-04 07:30 51.15211 -0.16988 212 ft 7 kts 77°
2026-05-04 07:31 51.15221 -0.16916 216 ft 7 kts 77°
2026-05-04 07:31 51.15224 -0.16879 216 ft 0 kts 91°
2026-05-04 07:33 51.15224 -0.16872 216 ft 0 kts 93°
2026-05-04 07:34 51.15216 -0.16838 220 ft 12 kts 121°
2026-05-04 07:34 51.15155 -0.16811 218 ft 9 kts 198°
2026-05-04 07:34 51.15122 -0.16854 216 ft 9 kts 233°
2026-05-04 07:34 51.15102 -0.16944 219 ft 0 kts 258°
2026-05-04 07:35 51.15099 -0.16963 215 ft 13 kts 258°
2026-05-04 07:35 51.14949 -0.18062 218 ft 140 kts 257°
2026-05-04 07:35 51.14679 -0.20039 361 ft 211 kts 259°
2026-05-04 07:35 51.14483 -0.21496 745 ft 197 kts 259°
2026-05-04 07:36 51.14200 -0.23637 1460 ft 198 kts 259°
2026-05-04 07:36 51.13922 -0.25792 1997 ft 204 kts 258°
2026-05-04 07:38 51.11092 -0.44666 3992 ft 264 kts 245°
2026-05-04 07:38 51.10279 -0.47246 4008 ft 264 kts 242°
2026-05-04 07:38 51.09414 -0.49839 3999 ft 265 kts 242°
2026-05-04 07:38 51.08565 -0.52441 3999 ft 265 kts 243°
2026-05-04 07:39 51.07731 -0.55061 4001 ft 265 kts 243°
2026-05-04 07:39 51.06906 -0.57680 4000 ft 265 kts 243°
2026-05-04 07:39 51.06082 -0.60305 3998 ft 265 kts 244°
2026-05-04 07:39 51.05291 -0.62948 3984 ft 263 kts 251°
2026-05-04 07:40 51.04851 -0.65742 4015 ft 260 kts 259°
2026-05-04 07:40 51.04527 -0.68582 3999 ft 262 kts 259°
2026-05-04 07:40 51.04186 -0.71431 4004 ft 263 kts 259°
2026-05-04 07:40 51.03824 -0.74295 4008 ft 264 kts 258°
2026-05-04 07:41 51.03459 -0.77128 4106 ft 266 kts 258°
2026-05-04 07:41 51.03078 -0.79999 4874 ft 265 kts 258°
2026-05-04 07:41 51.02694 -0.82865 5633 ft 267 kts 257°
2026-05-04 07:41 51.02304 -0.85765 6381 ft 269 kts 257°
2026-05-04 07:42 51.01909 -0.88678 7077 ft 271 kts 257°
2026-05-04 07:42 51.01510 -0.91616 7775 ft 273 kts 257°
2026-05-04 07:42 51.01083 -0.94558 8490 ft 274 kts 255°
2026-05-04 07:42 51.00638 -0.97517 9199 ft 276 kts 255°
2026-05-04 07:43 51.00204 -1.00499 9910 ft 278 kts 256°
2026-05-04 07:43 50.99785 -1.03533 10428 ft 287 kts 256°
2026-05-04 07:43 50.99344 -1.06749 10587 ft 309 kts 256°
2026-05-04 07:43 50.98868 -1.10208 10775 ft 331 kts 256°
2026-05-04 07:44 50.98359 -1.13899 10960 ft 353 kts 256°
2026-05-04 07:44 50.97831 -1.17727 11439 ft 365 kts 256°
2026-05-04 07:44 50.97281 -1.21706 12085 ft 373 kts 256°
2026-05-04 07:44 50.96721 -1.25753 12883 ft 377 kts 256°
2026-05-04 07:45 50.96151 -1.29844 13707 ft 381 kts 256°
2026-05-04 07:45 50.95573 -1.33974 14442 ft 386 kts 256°
2026-05-04 07:45 50.95010 -1.38152 15190 ft 389 kts 257°
2026-05-04 07:45 50.94470 -1.42383 15942 ft 394 kts 257°
2026-05-04 07:46 50.93929 -1.46685 16607 ft 399 kts 257°
2026-05-04 07:46 50.93390 -1.50966 17331 ft 403 kts 257°
2026-05-04 07:46 50.92835 -1.55340 18094 ft 406 kts 257°
2026-05-04 07:46 50.92273 -1.59738 18761 ft 409 kts 256°
2026-05-04 07:47 50.91703 -1.64174 19473 ft 410 kts 256°
2026-05-04 07:47 50.91131 -1.68604 20194 ft 411 kts 256°
2026-05-04 07:47 50.90553 -1.73057 20914 ft 412 kts 256°
2026-05-04 07:49 50.86381 -2.04824 24885 ft 432 kts 255°
2026-05-04 07:49 50.85761 -2.09505 25322 ft 436 kts 255°
2026-05-04 07:49 50.85141 -2.14177 25738 ft 440 kts 255°
2026-05-04 07:50 50.84507 -2.18939 26159 ft 443 kts 255°
2026-05-04 07:50 50.83868 -2.23724 26592 ft 446 kts 255°
2026-05-04 07:50 50.83224 -2.28534 27012 ft 449 kts 255°
2026-05-04 07:50 50.82573 -2.33382 27436 ft 452 kts 255°
2026-05-04 07:51 50.81914 -2.38266 27723 ft 458 kts 255°
2026-05-04 07:51 50.81244 -2.43227 27995 ft 463 kts 255°
2026-05-04 07:51 50.80568 -2.48225 28390 ft 465 kts 255°
2026-05-04 07:51 50.79883 -2.53227 28788 ft 467 kts 254°
2026-05-04 07:52 50.79210 -2.58254 29161 ft 469 kts 255°
2026-05-04 07:52 50.78586 -2.63252 29589 ft 470 kts 256°
2026-05-04 07:52 50.77970 -2.68357 30078 ft 469 kts 256°
2026-05-04 07:52 50.77367 -2.73417 30475 ft 469 kts 256°
2026-05-04 07:53 50.76760 -2.78482 30857 ft 469 kts 256°
2026-05-04 07:54 50.72345 -3.14122 31988 ft 471 kts 257°
2026-05-04 07:55 50.71062 -3.24256 31995 ft 470 kts 257°
2026-05-04 07:55 50.69776 -3.34342 32003 ft 472 kts 257°
2026-05-04 07:56 50.68468 -3.44526 32002 ft 475 kts 257°
2026-05-04 07:56 50.67145 -3.54751 31999 ft 476 kts 256°
2026-05-04 07:57 50.65809 -3.65007 31997 ft 477 kts 256°
2026-05-04 07:57 50.64471 -3.75208 32008 ft 478 kts 257°
2026-05-04 07:58 50.63111 -3.85486 32003 ft 479 kts 257°
2026-05-04 07:58 50.61744 -3.95757 32002 ft 481 kts 257°
2026-05-04 07:59 50.60358 -4.06094 31989 ft 481 kts 257°
2026-05-04 07:59 50.58974 -4.16343 31996 ft 482 kts 256°
2026-05-04 08:00 50.57565 -4.26697 31994 ft 483 kts 257°
2026-05-04 08:02 50.51849 -4.67983 31982 ft 483 kts 257°
2026-05-04 08:02 50.50395 -4.78305 31997 ft 484 kts 257°
2026-05-04 08:03 50.48937 -4.88584 31998 ft 485 kts 257°
2026-05-04 08:03 50.47458 -4.98942 32000 ft 487 kts 257°
2026-05-04 08:04 50.45965 -5.09325 31996 ft 487 kts 256°
2026-05-04 08:04 50.44461 -5.19713 31995 ft 487 kts 256°
2026-05-04 08:05 50.42961 -5.30009 31993 ft 487 kts 256°
2026-05-04 08:05 50.41457 -5.40257 31988 ft 487 kts 256°
2026-05-04 08:06 50.39929 -5.50604 31984 ft 486 kts 256°
2026-05-04 08:06 50.38393 -5.60931 31980 ft 487 kts 256°
2026-05-04 08:08 50.32145 -6.02269 31974 ft 490 kts 256°
2026-05-04 08:11 50.24891 -6.48969 31974 ft 493 kts 256°
2026-05-04 08:11 50.22422 -6.64564 31996 ft 493 kts 256°
2026-05-04 08:12 50.20763 -6.74957 31969 ft 492 kts 256°
2026-05-04 08:12 50.19109 -6.85257 31988 ft 491 kts 256°
2026-05-04 08:13 50.17436 -6.95610 31976 ft 491 kts 256°
2026-05-04 08:13 50.15758 -7.05932 31982 ft 491 kts 256°
2026-05-04 08:14 50.14070 -7.16256 31992 ft 491 kts 255°
2026-05-04 08:16 50.07203 -7.57610 32006 ft 495 kts 256°
2026-05-04 08:16 50.05456 -7.67975 31987 ft 495 kts 255°
2026-05-04 08:17 50.03711 -7.78268 31986 ft 496 kts 256°
2026-05-04 08:17 50.01942 -7.88660 32013 ft 497 kts 256°
2026-05-04 08:19 49.92242 -8.28853 32014 ft 500 kts 248°
2026-05-04 08:20 49.89538 -8.38825 32015 ft 502 kts 248°
2026-05-04 08:20 49.86834 -8.48799 32002 ft 501 kts 248°
2026-05-04 08:21 49.84126 -8.58735 32003 ft 499 kts 247°
2026-05-04 08:21 49.81436 -8.68557 31995 ft 497 kts 248°
2026-05-04 08:22 49.78730 -8.78397 32018 ft 497 kts 247°
2026-05-04 08:24 49.68231 -9.16188 32022 ft 502 kts 247°
2026-05-04 08:24 49.65441 -9.26132 32009 ft 505 kts 247°
2026-05-04 08:25 49.62636 -9.36085 32012 ft 506 kts 247°
2026-05-04 08:25 49.59815 -9.46051 32013 ft 507 kts 247°
2026-05-04 08:27 49.48577 -9.85348 32011 ft 496 kts 246°
2026-05-04 08:28 49.45777 -9.95042 32024 ft 497 kts 247°
2026-05-04 08:28 49.42953 -10.04781 32029 ft 501 kts 246°
2026-05-04 08:29 49.40116 -10.14524 32013 ft 504 kts 246°
2026-05-04 08:31 49.28503 -10.53997 32029 ft 510 kts 246°
2026-05-04 08:33 49.16739 -10.93338 32025 ft 506 kts 246°
2026-05-04 08:35 49.04864 -11.32426 32033 ft 512 kts 246°
2026-05-04 08:35 49.01841 -11.42280 32035 ft 514 kts 246°
2026-05-04 08:37 48.91147 -11.76832 32044 ft 518 kts 246°
2026-05-04 08:38 48.88062 -11.86717 32048 ft 516 kts 246°
2026-05-04 08:38 48.84984 -11.96542 32038 ft 514 kts 248°
2026-05-04 08:40 48.76733 -12.37674 32057 ft 511 kts 257°
2026-05-04 08:41 48.74754 -12.47968 32080 ft 512 kts 257°
2026-05-04 08:41 48.72746 -12.58345 32079 ft 514 kts 257°
2026-05-04 08:42 48.70723 -12.68752 32086 ft 515 kts 257°
2026-05-04 08:42 48.68689 -12.79158 32086 ft 515 kts 258°
2026-05-04 08:43 48.66647 -12.89558 32090 ft 516 kts 258°
2026-05-04 08:43 48.64601 -12.99916 32105 ft 516 kts 257°
2026-05-04 08:44 48.62539 -13.10307 32105 ft 516 kts 257°
2026-05-04 08:46 48.54181 -13.51846 32119 ft 517 kts 257°
2026-05-04 08:46 48.52082 -13.62143 32129 ft 517 kts 257°
2026-05-04 08:47 48.49958 -13.72506 32127 ft 517 kts 257°
2026-05-04 08:47 48.47823 -13.82872 32130 ft 518 kts 257°
2026-05-04 08:48 48.45677 -13.93235 32118 ft 517 kts 257°
2026-05-04 08:48 48.43528 -14.03558 32139 ft 516 kts 257°
2026-05-04 08:49 48.41385 -14.13799 32147 ft 515 kts 257°
2026-05-04 08:50 48.33794 -14.49673 32158 ft 513 kts 257°
2026-05-04 08:51 48.31611 -14.59877 32166 ft 513 kts 257°
2026-05-04 08:51 48.29421 -14.70059 32167 ft 513 kts 257°
2026-05-04 08:52 48.27229 -14.80203 32170 ft 512 kts 257°
2026-05-04 08:52 48.25017 -14.90387 32177 ft 512 kts 256°
2026-05-04 08:54 48.16134 -15.30784 32191 ft 508 kts 256°
2026-05-04 08:55 48.13900 -15.40823 32201 ft 508 kts 256°
2026-05-04 08:55 48.11661 -15.50838 32196 ft 507 kts 256°
2026-05-04 09:01 47.87811 -16.54675 32254 ft 501 kts 255°
2026-05-04 09:01 47.85498 -16.64482 32237 ft 501 kts 255°
2026-05-04 09:02 47.83184 -16.74249 32236 ft 499 kts 254°
2026-05-04 09:02 47.80880 -16.83933 32244 ft 498 kts 254°
2026-05-04 09:03 47.78559 -16.93646 32248 ft 498 kts 254°
2026-05-04 09:03 47.76229 -17.03351 32246 ft 497 kts 254°
2026-05-04 09:04 47.73896 -17.13032 32247 ft 496 kts 253°
2026-05-04 09:04 47.71563 -17.22664 32252 ft 496 kts 253°
2026-05-04 09:05 47.69234 -17.32241 32254 ft 495 kts 253°
2026-05-04 09:05 47.66881 -17.41876 32261 ft 495 kts 253°
2026-05-04 09:06 47.64543 -17.51407 32262 ft 495 kts 253°
2026-05-04 09:08 47.55032 -17.89771 32274 ft 494 kts 253°
2026-05-04 09:08 47.52655 -17.99254 32273 ft 493 kts 252°
2026-05-04 09:09 47.50262 -18.08759 32273 ft 492 kts 252°
2026-05-04 09:09 47.48272 -18.16637 32282 ft 491 kts 252°
2026-05-04 09:10 47.45874 -18.26099 32278 ft 490 kts 252°
2026-05-04 09:10 47.43476 -18.35514 32287 ft 489 kts 252°
2026-05-04 09:11 47.41074 -18.44912 32291 ft 488 kts 252°
2026-05-04 09:11 47.38663 -18.54301 32288 ft 488 kts 252°
2026-05-04 09:12 47.36251 -18.63662 32284 ft 487 kts 252°
2026-05-04 09:14 47.26577 -19.00815 32293 ft 485 kts 251°
2026-05-04 09:14 47.24146 -19.10058 32301 ft 484 kts 251°
2026-05-04 09:15 47.21723 -19.19236 32303 ft 484 kts 251°
2026-05-04 09:15 47.19281 -19.28450 32305 ft 483 kts 251°
2026-05-04 09:17 47.08221 -19.69735 32295 ft 483 kts 250°
2026-05-04 09:18 47.05758 -19.78837 32312 ft 482 kts 250°
2026-05-04 09:18 47.03276 -19.87976 32313 ft 482 kts 250°
2026-05-04 09:19 47.00789 -19.97101 32319 ft 482 kts 250°
2026-05-04 09:19 46.98050 -20.06071 32304 ft 483 kts 246°
2026-05-04 09:20 46.95089 -20.14874 32315 ft 482 kts 246°
2026-05-04 09:20 46.92115 -20.23682 32319 ft 482 kts 246°
2026-05-04 09:21 46.89159 -20.32475 32321 ft 482 kts 246°
2026-05-04 09:21 46.86222 -20.41224 32308 ft 482 kts 246°
2026-05-04 09:22 46.83268 -20.50001 32319 ft 481 kts 246°
2026-05-04 09:22 46.80309 -20.58759 32324 ft 481 kts 246°
2026-05-04 09:23 46.77340 -20.67514 32328 ft 481 kts 246°
2026-05-04 09:23 46.74381 -20.76211 32323 ft 481 kts 246°
2026-05-04 09:25 46.62457 -21.10965 32329 ft 479 kts 246°
2026-05-04 09:26 46.59460 -21.19629 32338 ft 479 kts 246°
2026-05-04 09:26 46.56459 -21.28276 32335 ft 479 kts 246°
2026-05-04 09:27 46.53452 -21.36913 32332 ft 479 kts 246°
2026-05-04 09:27 46.50458 -21.45485 32321 ft 479 kts 245°
2026-05-04 09:28 46.47438 -21.54101 32326 ft 478 kts 245°
2026-05-04 09:28 46.44414 -21.62702 32341 ft 478 kts 245°
2026-05-04 09:29 46.41379 -21.71305 32333 ft 478 kts 245°
2026-05-04 09:29 46.38364 -21.79824 32335 ft 478 kts 245°
2026-05-04 09:30 46.35319 -21.88401 32335 ft 478 kts 245°
2026-05-04 09:30 46.32273 -21.96953 32329 ft 477 kts 245°
2026-05-04 09:31 46.29223 -22.05489 32343 ft 477 kts 245°
2026-05-04 09:31 46.26167 -22.14017 32340 ft 477 kts 245°
2026-05-04 09:32 46.23126 -22.22473 32340 ft 477 kts 245°
2026-05-04 09:34 46.10864 -22.56304 32341 ft 474 kts 244°
2026-05-04 09:34 46.07791 -22.64715 32346 ft 474 kts 244°
2026-05-04 09:35 46.04715 -22.73110 32345 ft 474 kts 244°
2026-05-04 09:35 46.01632 -22.81499 32341 ft 473 kts 244°
2026-05-04 09:37 45.89274 -23.14861 32346 ft 473 kts 244°
2026-05-04 09:38 45.86167 -23.23184 32350 ft 472 kts 244°
2026-05-04 09:38 45.83056 -23.31492 32353 ft 472 kts 244°
2026-05-04 09:39 45.79966 -23.39720 32353 ft 472 kts 244°
2026-05-04 09:39 45.76851 -23.47987 32354 ft 471 kts 244°
2026-05-04 09:40 45.73741 -23.56220 32356 ft 470 kts 244°
2026-05-04 09:40 45.70631 -23.64426 32354 ft 468 kts 244°
2026-05-04 09:42 45.58213 -23.96950 32361 ft 465 kts 244°
2026-05-04 09:43 45.55121 -24.04988 32361 ft 465 kts 244°
2026-05-04 09:43 45.52003 -24.13071 32358 ft 465 kts 245°
2026-05-04 09:44 45.48875 -24.21158 32363 ft 465 kts 245°
2026-05-04 09:46 45.36320 -24.53370 32366 ft 466 kts 244°
2026-05-04 09:46 45.33158 -24.61425 32367 ft 466 kts 244°
2026-05-04 09:47 45.29992 -24.69467 32352 ft 466 kts 244°
2026-05-04 09:49 45.17302 -25.01465 32351 ft 465 kts 244°
2026-05-04 09:51 45.06123 -25.29352 32376 ft 466 kts 244°
2026-05-04 09:51 45.02913 -25.37309 32377 ft 466 kts 243°
2026-05-04 09:52 44.99713 -25.45217 32381 ft 467 kts 243°
2026-05-04 09:52 44.96484 -25.53177 32383 ft 467 kts 243°
2026-05-04 09:53 44.93242 -25.61145 32390 ft 468 kts 243°
2026-05-04 09:53 44.89995 -25.69103 32382 ft 468 kts 243°
2026-05-04 09:54 44.86737 -25.77063 32391 ft 468 kts 243°
2026-05-04 09:54 44.83468 -25.85030 32388 ft 469 kts 243°
2026-05-04 09:55 44.80195 -25.92983 32376 ft 469 kts 242°
2026-05-04 09:55 44.76930 -26.00894 32400 ft 469 kts 242°
2026-05-04 09:56 44.73639 -26.08847 32406 ft 469 kts 242°
2026-05-04 09:56 44.70370 -26.16723 32400 ft 468 kts 242°
2026-05-04 09:57 44.67085 -26.24616 32381 ft 467 kts 242°
2026-05-04 09:57 44.64352 -26.31167 32399 ft 466 kts 242°
2026-05-04 09:58 44.61067 -26.39022 32395 ft 465 kts 242°
2026-05-04 09:58 44.57785 -26.46847 32400 ft 465 kts 242°
2026-05-04 10:00 44.44615 -26.78032 32404 ft 466 kts 241°
2026-05-04 10:04 44.21267 -27.32490 32406 ft 468 kts 240°
2026-05-04 10:04 44.17904 -27.40251 32409 ft 467 kts 240°
2026-05-04 10:05 44.14538 -27.47996 32413 ft 467 kts 240°
2026-05-04 10:05 44.11166 -27.55735 32410 ft 467 kts 240°
2026-05-04 10:06 44.07795 -27.63450 32410 ft 466 kts 240°
2026-05-04 10:06 44.04422 -27.71150 32409 ft 466 kts 239°
2026-05-04 10:08 43.92583 -27.98014 32410 ft 467 kts 239°
2026-05-04 10:08 43.89178 -28.05695 32416 ft 467 kts 239°
2026-05-04 10:09 43.85764 -28.13374 32419 ft 468 kts 239°
2026-05-04 10:09 43.82342 -28.21051 32421 ft 468 kts 239°
2026-05-04 10:10 43.78938 -28.28670 32416 ft 468 kts 239°
2026-05-04 10:10 43.75504 -28.36334 32419 ft 469 kts 239°
2026-05-04 10:11 43.72058 -28.44005 32415 ft 469 kts 239°
2026-05-04 10:11 43.68608 -28.51663 32419 ft 469 kts 239°
2026-05-04 10:12 43.65150 -28.59322 32418 ft 469 kts 238°
2026-05-04 10:12 43.61690 -28.66961 32419 ft 469 kts 238°
2026-05-04 10:13 43.58220 -28.74603 32423 ft 469 kts 238°
2026-05-04 10:13 43.54751 -28.82225 32420 ft 469 kts 238°
2026-05-04 10:14 43.51295 -28.89799 32423 ft 470 kts 238°
2026-05-04 10:16 43.37278 -29.20316 32422 ft 472 kts 238°
2026-05-04 10:16 43.33758 -29.27928 32421 ft 472 kts 238°
2026-05-04 10:17 43.30251 -29.35494 32422 ft 472 kts 238°
2026-05-04 10:19 43.16071 -29.65894 32417 ft 473 kts 238°
2026-05-04 10:19 43.12513 -29.73475 32422 ft 473 kts 238°
2026-05-04 10:20 43.08969 -29.81006 32418 ft 472 kts 238°
2026-05-04 10:20 43.05409 -29.88553 32421 ft 472 kts 238°
2026-05-04 10:21 43.01854 -29.96077 32416 ft 471 kts 238°
2026-05-04 10:21 42.98336 -30.03626 32415 ft 470 kts 240°
2026-05-04 10:22 42.93462 -30.15217 32421 ft 469 kts 241°
2026-05-04 10:23 42.90230 -30.22956 32418 ft 469 kts 241°
2026-05-04 10:25 42.77098 -30.53693 32421 ft 471 kts 241°
2026-05-04 10:25 42.73785 -30.61388 32421 ft 471 kts 241°
2026-05-04 10:26 42.70465 -30.69079 32421 ft 472 kts 241°
2026-05-04 10:26 42.67133 -30.76776 32414 ft 472 kts 241°
2026-05-04 10:27 42.63820 -30.84411 32421 ft 472 kts 241°
2026-05-04 10:27 42.60474 -30.92099 32416 ft 472 kts 241°
2026-05-04 10:28 42.57127 -30.99771 32402 ft 472 kts 242°
2026-05-04 10:28 42.53777 -31.07432 32417 ft 472 kts 241°
2026-05-04 10:29 42.50421 -31.15085 32414 ft 471 kts 241°
2026-05-04 10:29 42.47085 -31.22672 32413 ft 471 kts 241°
2026-05-04 10:30 42.43725 -31.30293 32404 ft 470 kts 242°
2026-05-04 10:30 42.40363 -31.37902 32413 ft 470 kts 241°
2026-05-04 10:31 42.36999 -31.45494 32413 ft 470 kts 241°
2026-05-04 10:32 42.25195 -31.71986 32411 ft 472 kts 242°
2026-05-04 10:33 42.21800 -31.79561 32394 ft 472 kts 242°
2026-05-04 10:33 42.18396 -31.87136 32398 ft 472 kts 242°
2026-05-04 10:34 42.14980 -31.94719 32417 ft 472 kts 241°
2026-05-04 10:34 42.11571 -32.02269 32419 ft 472 kts 241°
2026-05-04 10:35 42.08179 -32.09762 32407 ft 471 kts 241°
2026-05-04 10:35 42.04758 -32.17298 32407 ft 471 kts 241°
2026-05-04 10:36 42.01333 -32.24825 32401 ft 471 kts 241°
2026-05-04 10:36 41.97911 -32.32328 32397 ft 470 kts 241°
2026-05-04 10:37 41.94506 -32.39773 32399 ft 470 kts 241°
2026-05-04 10:37 41.91075 -32.47257 32396 ft 469 kts 240°
2026-05-04 10:39 41.79080 -32.73277 32398 ft 467 kts 239°
2026-05-04 10:40 41.75654 -32.80668 32396 ft 466 kts 239°
2026-05-04 10:40 41.72246 -32.88003 32393 ft 466 kts 239°
2026-05-04 10:41 41.68809 -32.95382 32388 ft 466 kts 239°
2026-05-04 10:41 41.65364 -33.02758 32393 ft 466 kts 239°
2026-05-04 10:42 41.61922 -33.10111 32389 ft 466 kts 239°
2026-05-04 10:42 41.58495 -33.17415 32385 ft 466 kts 239°
2026-05-04 10:43 41.55042 -33.24756 32387 ft 466 kts 239°
2026-05-04 10:45 41.41762 -33.52826 32389 ft 468 kts 239°
2026-05-04 10:45 41.38270 -33.60162 32383 ft 469 kts 239°
2026-05-04 10:46 41.34764 -33.67515 32380 ft 470 kts 239°
2026-05-04 10:46 41.31247 -33.74872 32379 ft 471 kts 239°
2026-05-04 10:47 41.27732 -33.82202 32361 ft 473 kts 240°
2026-05-04 10:47 41.24182 -33.89592 32380 ft 474 kts 240°
2026-05-04 10:49 41.09939 -34.19056 32363 ft 476 kts 240°
2026-05-04 10:50 41.06346 -34.26445 32362 ft 477 kts 240°
2026-05-04 10:51 40.93573 -34.52571 32351 ft 488 kts 242°
2026-05-04 10:52 40.91721 -34.56338 32346 ft 490 kts 243°
2026-05-04 10:52 40.87996 -34.63905 32355 ft 491 kts 243°
2026-05-04 10:54 40.72983 -34.94220 32350 ft 497 kts 244°
2026-05-04 10:56 40.57701 -35.24774 32345 ft 502 kts 244°
2026-05-04 10:57 40.53846 -35.32430 32341 ft 501 kts 244°
2026-05-04 10:57 40.49996 -35.40058 32341 ft 499 kts 244°
2026-05-04 10:58 40.46153 -35.47655 32308 ft 499 kts 245°
2026-05-04 10:58 40.42330 -35.55198 32340 ft 499 kts 245°
2026-05-04 10:59 40.38468 -35.62802 32340 ft 501 kts 245°
2026-05-04 10:59 40.34593 -35.70410 32317 ft 502 kts 245°
2026-05-04 11:00 40.30702 -35.78029 32327 ft 503 kts 245°
2026-05-04 11:02 40.15070 -36.08446 32324 ft 502 kts 244°
2026-05-04 11:05 39.85798 -36.64644 32306 ft 499 kts 243°
2026-05-04 11:06 39.81872 -36.72104 32315 ft 500 kts 243°
2026-05-04 11:06 39.77936 -36.79566 32310 ft 500 kts 243°
2026-05-04 11:10 39.50453 -37.31185 32296 ft 494 kts 242°
2026-05-04 11:12 39.34744 -37.60323 32294 ft 493 kts 242°
2026-05-04 11:12 39.30819 -37.67560 32302 ft 494 kts 242°
2026-05-04 11:13 39.26867 -37.74832 32289 ft 494 kts 242°
2026-05-04 11:13 39.22929 -37.82062 32291 ft 495 kts 242°
2026-05-04 11:14 39.18962 -37.89329 32271 ft 496 kts 242°
2026-05-04 11:16 39.03052 -38.18303 32283 ft 494 kts 242°
2026-05-04 11:16 38.99098 -38.25464 32277 ft 493 kts 242°
2026-05-04 11:17 38.95123 -38.32648 32258 ft 493 kts 242°
2026-05-04 11:19 38.79215 -38.61237 32268 ft 492 kts 241°
2026-05-04 11:19 38.75223 -38.68371 32265 ft 492 kts 241°
2026-05-04 11:20 38.71230 -38.75493 32259 ft 492 kts 241°
2026-05-04 11:20 38.67222 -38.82625 32276 ft 493 kts 241°
2026-05-04 11:22 38.51130 -39.11101 32257 ft 495 kts 240°
2026-05-04 11:23 38.47090 -39.18211 32248 ft 494 kts 240°
2026-05-04 11:25 38.32962 -39.42954 32248 ft 492 kts 240°
2026-05-04 11:25 38.28927 -39.49988 32252 ft 491 kts 240°
2026-05-04 11:27 38.10795 -39.81412 32236 ft 489 kts 239°
2026-05-04 11:28 38.06755 -39.88375 32238 ft 489 kts 239°
2026-05-04 11:28 38.02724 -39.95314 32233 ft 489 kts 239°
2026-05-04 11:29 37.98667 -40.02252 32241 ft 489 kts 239°
2026-05-04 11:29 37.94530 -40.09103 32238 ft 490 kts 238°
2026-05-04 11:33 37.66215 -40.55534 32227 ft 485 kts 238°
2026-05-04 11:33 37.62086 -40.62263 32225 ft 484 kts 238°
2026-05-04 11:34 37.57960 -40.68975 32219 ft 484 kts 237°
2026-05-04 11:34 37.53838 -40.75665 32227 ft 483 kts 237°
2026-05-04 11:35 37.49714 -40.82344 32223 ft 482 kts 237°
2026-05-04 11:35 37.45589 -40.89013 32212 ft 482 kts 237°
2026-05-04 11:36 37.41468 -40.95661 32218 ft 482 kts 237°
2026-05-04 11:36 37.37366 -41.02265 32220 ft 482 kts 237°
2026-05-04 11:37 37.33229 -41.08913 32218 ft 482 kts 237°
2026-05-04 11:37 37.29093 -41.15545 32222 ft 482 kts 237°
2026-05-04 11:38 37.24953 -41.22170 32221 ft 482 kts 237°
2026-05-04 11:38 37.20818 -41.28775 32217 ft 481 kts 237°
2026-05-04 11:39 37.16707 -41.35327 32216 ft 480 kts 237°
2026-05-04 11:41 37.02244 -41.58282 32201 ft 479 kts 236°
2026-05-04 11:41 36.98138 -41.64770 32219 ft 477 kts 236°
2026-05-04 11:42 36.94010 -41.71279 32218 ft 477 kts 236°
2026-05-04 11:42 36.89881 -41.77779 32208 ft 476 kts 236°
2026-05-04 11:43 36.85763 -41.84247 32215 ft 476 kts 236°
2026-05-04 11:43 36.81639 -41.90713 32216 ft 476 kts 236°
2026-05-04 11:44 36.77540 -41.97129 32210 ft 475 kts 236°
2026-05-04 11:44 36.73414 -42.03574 32217 ft 475 kts 236°
2026-05-04 11:45 36.69284 -42.10011 32214 ft 475 kts 236°
2026-05-04 11:45 36.65153 -42.16438 32213 ft 475 kts 235°
2026-05-04 11:46 36.61021 -42.22855 32215 ft 474 kts 235°
2026-05-04 11:46 36.56884 -42.29268 32205 ft 474 kts 235°
2026-05-04 11:47 36.52755 -42.35656 32217 ft 473 kts 235°
2026-05-04 11:47 36.48653 -42.41989 32216 ft 473 kts 235°
2026-05-04 11:48 36.44525 -42.48352 32210 ft 472 kts 235°
2026-05-04 11:48 36.40398 -42.54700 32213 ft 471 kts 235°
2026-05-04 11:49 36.36272 -42.61036 32206 ft 471 kts 235°
2026-05-04 11:49 36.32156 -42.67344 32202 ft 470 kts 235°
2026-05-04 11:50 36.28058 -42.73612 32203 ft 470 kts 235°
2026-05-04 11:50 36.23931 -42.79914 32213 ft 470 kts 235°
2026-05-04 11:51 36.19808 -42.86198 32208 ft 470 kts 235°
2026-05-04 11:51 36.15684 -42.92473 32212 ft 470 kts 235°
2026-05-04 11:52 36.11577 -42.98709 32203 ft 470 kts 235°
2026-05-04 11:52 36.07447 -43.04969 32212 ft 470 kts 235°
2026-05-04 11:53 36.03312 -43.11225 32199 ft 470 kts 234°
2026-05-04 11:53 35.99179 -43.17467 32214 ft 469 kts 234°
2026-05-04 11:55 35.82611 -43.42372 32213 ft 469 kts 234°
2026-05-04 11:56 35.78455 -43.48592 32207 ft 469 kts 234°
2026-05-04 11:56 35.74319 -43.54771 32204 ft 469 kts 234°
2026-05-04 11:57 35.70173 -43.60951 32204 ft 468 kts 234°
2026-05-04 11:57 35.66024 -43.67126 32201 ft 468 kts 234°
2026-05-04 11:58 35.61867 -43.73302 32205 ft 467 kts 234°
2026-05-04 11:58 35.57744 -43.79418 32204 ft 467 kts 234°
2026-05-04 11:59 35.53592 -43.85564 32197 ft 467 kts 234°
2026-05-04 11:59 35.49440 -43.91700 32205 ft 467 kts 234°
2026-05-04 12:00 35.45273 -43.97846 32204 ft 467 kts 234°
2026-05-04 12:00 35.41112 -44.03973 32197 ft 467 kts 234°
2026-05-04 12:01 35.36974 -44.10054 32202 ft 467 kts 234°
2026-05-04 12:02 35.22380 -44.31421 32199 ft 466 kts 234°
2026-05-04 12:03 35.18212 -44.37499 32195 ft 466 kts 234°
2026-05-04 12:03 35.14071 -44.43528 32193 ft 466 kts 234°
2026-05-04 12:04 35.09905 -44.49582 32198 ft 465 kts 234°
2026-05-04 12:04 35.05733 -44.55634 32200 ft 465 kts 234°
2026-05-04 12:05 35.01560 -44.61676 32191 ft 465 kts 234°
2026-05-04 12:05 34.97394 -44.67700 32193 ft 464 kts 234°
2026-05-04 12:06 34.93228 -44.73711 32197 ft 464 kts 234°
2026-05-04 12:06 34.89066 -44.79707 32199 ft 463 kts 234°
2026-05-04 12:07 34.84903 -44.85694 32199 ft 463 kts 234°
2026-05-04 12:07 34.80740 -44.91671 32198 ft 462 kts 234°
2026-05-04 12:08 34.76577 -44.97637 32198 ft 462 kts 234°
2026-05-04 12:08 34.72436 -45.03563 32189 ft 462 kts 234°
2026-05-04 12:09 34.68267 -45.09517 32199 ft 462 kts 234°
2026-05-04 12:09 34.64093 -45.15469 32199 ft 463 kts 234°
2026-05-04 12:10 34.59911 -45.21422 32191 ft 463 kts 234°
2026-05-04 12:10 34.55733 -45.27360 32197 ft 463 kts 234°
2026-05-04 12:11 34.51575 -45.33259 32195 ft 463 kts 234°
2026-05-04 12:11 34.47380 -45.39201 32192 ft 463 kts 235°
2026-05-04 12:12 34.43190 -45.45124 32196 ft 462 kts 234°
2026-05-04 12:12 34.39000 -45.51038 32191 ft 462 kts 235°
2026-05-04 12:14 34.22233 -45.74608 32191 ft 462 kts 234°
2026-05-04 12:15 34.18048 -45.80466 32196 ft 462 kts 234°
2026-05-04 12:15 34.13832 -45.86359 32191 ft 463 kts 234°
2026-05-04 12:16 34.09615 -45.92241 32196 ft 463 kts 234°
2026-05-04 12:16 34.05423 -45.98080 32182 ft 464 kts 234°
2026-05-04 12:17 34.01194 -46.03961 32192 ft 464 kts 234°
2026-05-04 12:17 33.96960 -46.09839 32192 ft 464 kts 234°
2026-05-04 12:18 33.93440 -46.14719 32184 ft 464 kts 234°
2026-05-04 12:18 33.89189 -46.20602 32189 ft 465 kts 234°
2026-05-04 12:19 33.84942 -46.26470 32194 ft 465 kts 234°
2026-05-04 12:19 33.80684 -46.32344 32193 ft 465 kts 234°
2026-05-04 12:20 33.76446 -46.38180 32193 ft 465 kts 234°
2026-05-04 12:20 33.72190 -46.44031 32187 ft 465 kts 234°
2026-05-04 12:21 33.67930 -46.49879 32179 ft 464 kts 234°
2026-05-04 12:21 33.63675 -46.55710 32188 ft 464 kts 234°
2026-05-04 12:22 33.59419 -46.61533 32188 ft 464 kts 234°
2026-05-04 12:22 33.55164 -46.67346 32181 ft 463 kts 234°
2026-05-04 12:23 33.50906 -46.73153 32181 ft 463 kts 234°
2026-05-04 12:23 33.46672 -46.78918 32185 ft 463 kts 234°
2026-05-04 12:24 33.42402 -46.84723 32195 ft 464 kts 234°
2026-05-04 12:24 33.38124 -46.90530 32175 ft 464 kts 234°
2026-05-04 12:25 33.33869 -46.96295 32190 ft 465 kts 234°
2026-05-04 12:25 33.29584 -47.02092 32190 ft 465 kts 234°
2026-05-04 12:26 33.25287 -47.07896 32187 ft 465 kts 234°
2026-05-04 12:26 33.20992 -47.13688 32169 ft 465 kts 234°
2026-05-04 12:27 33.16704 -47.19460 32187 ft 464 kts 234°
2026-05-04 12:27 33.12446 -47.25184 32182 ft 464 kts 234°
2026-05-04 12:28 33.08154 -47.30944 32164 ft 463 kts 234°
2026-05-04 12:28 33.03868 -47.36687 32179 ft 463 kts 234°
2026-05-04 12:29 32.99574 -47.42430 32186 ft 463 kts 233°
2026-05-04 12:29 32.95311 -47.48125 32170 ft 463 kts 233°
2026-05-04 12:30 32.91024 -47.53843 32177 ft 463 kts 233°
2026-05-04 12:30 32.86732 -47.59557 32184 ft 463 kts 233°
2026-05-04 12:31 32.82429 -47.65279 32170 ft 463 kts 233°
2026-05-04 12:31 32.78130 -47.70984 32184 ft 463 kts 233°
2026-05-04 12:32 32.71673 -47.79538 32182 ft 463 kts 233°
2026-05-04 12:33 32.67367 -47.85231 32178 ft 463 kts 233°
2026-05-04 12:33 32.63060 -47.90916 32182 ft 463 kts 233°
2026-05-04 12:34 32.58778 -47.96560 32181 ft 463 kts 233°
2026-05-04 12:34 32.54473 -48.02225 32185 ft 462 kts 233°
2026-05-04 12:35 32.50170 -48.07879 32181 ft 461 kts 233°
2026-05-04 12:35 32.45872 -48.13517 32181 ft 460 kts 232°
2026-05-04 12:36 32.41580 -48.19139 32177 ft 459 kts 233°
2026-05-04 12:36 32.37290 -48.24750 32187 ft 459 kts 232°
2026-05-04 12:37 32.33032 -48.30312 32184 ft 459 kts 232°
2026-05-04 12:37 32.28745 -48.35901 32174 ft 459 kts 232°
2026-05-04 12:38 32.24449 -48.41494 32178 ft 459 kts 232°
2026-05-04 12:38 32.20154 -48.47079 32186 ft 459 kts 232°
2026-05-04 12:39 32.15853 -48.52661 32173 ft 459 kts 232°
2026-05-04 12:39 32.11553 -48.58234 32181 ft 459 kts 232°
2026-05-04 12:40 32.07271 -48.63775 32177 ft 459 kts 232°
2026-05-04 12:40 32.02966 -48.69338 32176 ft 459 kts 232°
2026-05-04 12:41 31.98656 -48.74899 32186 ft 459 kts 232°
2026-05-04 12:41 31.94341 -48.80458 32176 ft 459 kts 232°
2026-05-04 12:42 31.90030 -48.86003 32168 ft 459 kts 232°
2026-05-04 12:42 31.85710 -48.91552 32190 ft 460 kts 232°
2026-05-04 12:43 31.81373 -48.97115 32184 ft 461 kts 232°
2026-05-04 12:43 31.77030 -49.02677 32186 ft 462 kts 232°
2026-05-04 12:44 31.72707 -49.08204 32189 ft 462 kts 231°
2026-05-04 12:44 31.68347 -49.13771 32184 ft 462 kts 231°
2026-05-04 12:45 31.63982 -49.19335 32184 ft 462 kts 231°
2026-05-04 12:45 31.59649 -49.24851 32177 ft 462 kts 231°
2026-05-04 12:46 31.55281 -49.30404 32186 ft 463 kts 231°
2026-05-04 12:46 31.50911 -49.35950 32184 ft 462 kts 231°
2026-05-04 12:47 31.46545 -49.41484 32173 ft 462 kts 231°
2026-05-04 12:47 31.42185 -49.47001 32181 ft 461 kts 231°
2026-05-04 12:48 31.37817 -49.52522 32185 ft 462 kts 231°
2026-05-04 12:48 31.33477 -49.57997 32178 ft 461 kts 231°
2026-05-04 12:49 31.29109 -49.63501 32176 ft 461 kts 231°
2026-05-04 12:49 31.24743 -49.68995 32183 ft 461 kts 231°
2026-05-04 12:50 31.20371 -49.74489 32181 ft 461 kts 231°
2026-05-04 12:50 31.16005 -49.79967 32184 ft 460 kts 231°
2026-05-04 12:51 31.11639 -49.85438 32181 ft 459 kts 230°
2026-05-04 12:51 31.07281 -49.90893 32181 ft 459 kts 230°
2026-05-04 12:52 31.02955 -49.96303 32172 ft 458 kts 230°
2026-05-04 12:52 30.98602 -50.01736 32189 ft 458 kts 230°
2026-05-04 12:53 30.94269 -50.07167 32182 ft 457 kts 231°
2026-05-04 12:53 30.89942 -50.12602 32172 ft 457 kts 231°
2026-05-04 12:54 30.85614 -50.18031 32185 ft 458 kts 231°
2026-05-04 12:54 30.81272 -50.23470 32186 ft 458 kts 231°
2026-05-04 12:55 30.76955 -50.28869 32180 ft 458 kts 231°
2026-05-04 12:55 30.72609 -50.34295 32176 ft 458 kts 230°
2026-05-04 12:56 30.68263 -50.39714 32185 ft 459 kts 230°
2026-05-04 12:56 30.63903 -50.45143 32188 ft 458 kts 230°
2026-05-04 12:57 30.59572 -50.50528 32168 ft 458 kts 230°
2026-05-04 12:57 30.55215 -50.55937 32186 ft 458 kts 230°
2026-05-04 12:58 30.50858 -50.61341 32189 ft 458 kts 230°
2026-05-04 12:58 30.46498 -50.66738 32196 ft 458 kts 230°
2026-05-04 12:59 30.42161 -50.72101 32181 ft 458 kts 230°
2026-05-04 12:59 30.37804 -50.77480 32189 ft 458 kts 230°
2026-05-04 13:00 30.33437 -50.82864 32190 ft 458 kts 230°
2026-05-04 13:00 30.29069 -50.88243 32186 ft 459 kts 230°
2026-05-04 13:01 30.24697 -50.93619 32195 ft 459 kts 230°
2026-05-04 13:01 30.20342 -50.98966 32187 ft 459 kts 230°
2026-05-04 13:02 30.15963 -51.04335 32188 ft 459 kts 230°
2026-05-04 13:02 30.11582 -51.09699 32186 ft 459 kts 230°
2026-05-04 13:03 30.07192 -51.15067 32192 ft 460 kts 230°
2026-05-04 13:03 30.03543 -51.19524 32191 ft 460 kts 230°
2026-05-04 13:04 29.99137 -51.24897 32189 ft 461 kts 230°
2026-05-04 13:04 29.94725 -51.30270 32190 ft 461 kts 230°
2026-05-04 13:05 29.90296 -51.35657 32200 ft 462 kts 230°
2026-05-04 13:05 29.85896 -51.41001 32186 ft 461 kts 230°
2026-05-04 13:06 29.81475 -51.46363 32176 ft 461 kts 230°
2026-05-04 13:06 29.77058 -51.51713 32192 ft 460 kts 230°
2026-05-04 13:07 29.72636 -51.57062 32192 ft 461 kts 230°
2026-05-04 13:07 29.68240 -51.62372 32193 ft 460 kts 230°
2026-05-04 13:08 29.63822 -51.67702 32191 ft 459 kts 230°
2026-05-04 13:08 29.59417 -51.73008 32191 ft 458 kts 230°
2026-05-04 13:09 29.55013 -51.78306 32192 ft 458 kts 230°
2026-05-04 13:09 29.50613 -51.83593 32190 ft 457 kts 230°
2026-05-04 13:10 29.46239 -51.88840 32191 ft 457 kts 230°
2026-05-04 13:10 29.41836 -51.94116 32194 ft 457 kts 230°
2026-05-04 13:11 29.37432 -51.99387 32190 ft 457 kts 230°
2026-05-04 13:11 29.33023 -52.04656 32187 ft 458 kts 229°
2026-05-04 13:12 29.28602 -52.09930 32196 ft 459 kts 230°
2026-05-04 13:12 29.24209 -52.15168 32193 ft 459 kts 229°
2026-05-04 13:13 29.19776 -52.20443 32191 ft 459 kts 229°
2026-05-04 13:13 29.15348 -52.25707 32186 ft 459 kts 229°
2026-05-04 13:14 29.10911 -52.30974 32201 ft 459 kts 229°
2026-05-04 13:14 29.06474 -52.36234 32191 ft 459 kts 229°
2026-05-04 13:15 29.02037 -52.41487 32195 ft 459 kts 229°
2026-05-04 13:15 28.97598 -52.46736 32191 ft 459 kts 229°
2026-05-04 13:16 28.93187 -52.51945 32195 ft 459 kts 229°
2026-05-04 13:16 28.88738 -52.57192 32196 ft 459 kts 229°
2026-05-04 13:17 28.84288 -52.62432 32176 ft 459 kts 229°
2026-05-04 13:17 28.79834 -52.67671 32208 ft 460 kts 229°
2026-05-04 13:18 28.75378 -52.72906 32190 ft 460 kts 229°
2026-05-04 13:18 28.70911 -52.78146 32194 ft 461 kts 229°
2026-05-04 13:19 28.66447 -52.83375 32183 ft 460 kts 229°
2026-05-04 13:19 28.61982 -52.88600 32187 ft 460 kts 229°
2026-05-04 13:20 28.57539 -52.93792 32198 ft 460 kts 229°
2026-05-04 13:20 28.53055 -52.99025 32198 ft 461 kts 229°
2026-05-04 13:21 28.48580 -53.04241 32196 ft 461 kts 229°
2026-05-04 13:21 28.44102 -53.09454 32193 ft 461 kts 229°
2026-05-04 13:22 28.39620 -53.14664 32197 ft 461 kts 229°
2026-05-04 13:22 28.35137 -53.19869 32191 ft 461 kts 229°
2026-05-04 13:23 28.30671 -53.25048 32187 ft 461 kts 229°
2026-05-04 13:23 28.26179 -53.30250 32188 ft 462 kts 229°
2026-05-04 13:24 28.21674 -53.35460 32197 ft 462 kts 229°
2026-05-04 13:24 28.17161 -53.40673 32195 ft 462 kts 229°
2026-05-04 13:25 28.10398 -53.48472 32189 ft 463 kts 229°
2026-05-04 13:25 28.05906 -53.53645 32198 ft 463 kts 229°
2026-05-04 13:26 28.01370 -53.58861 32198 ft 464 kts 229°
2026-05-04 13:26 27.96831 -53.64074 32192 ft 464 kts 229°
2026-05-04 13:27 27.92295 -53.69277 32194 ft 464 kts 229°
2026-05-04 13:27 27.87759 -53.74473 32203 ft 464 kts 229°
2026-05-04 13:28 27.83258 -53.79622 32194 ft 463 kts 229°
2026-05-04 13:28 27.78733 -53.84793 32174 ft 462 kts 228°
2026-05-04 13:29 27.74210 -53.89955 32194 ft 462 kts 228°
2026-05-04 13:29 27.69682 -53.95116 32197 ft 462 kts 228°
2026-05-04 13:30 27.65149 -54.00278 32198 ft 463 kts 228°
2026-05-04 13:30 27.60637 -54.05407 32188 ft 463 kts 228°
2026-05-04 13:31 27.56088 -54.10573 32191 ft 464 kts 228°
2026-05-04 13:31 27.51537 -54.15735 32194 ft 464 kts 228°
2026-05-04 13:32 27.46976 -54.20901 32193 ft 464 kts 228°
2026-05-04 13:32 27.42414 -54.26062 32188 ft 465 kts 228°
2026-05-04 13:33 27.37879 -54.31186 32198 ft 465 kts 228°
2026-05-04 13:33 27.33307 -54.36345 32193 ft 465 kts 228°
2026-05-04 13:34 27.28744 -54.41489 32191 ft 465 kts 228°
2026-05-04 13:34 27.24175 -54.46632 32182 ft 465 kts 228°
2026-05-04 13:35 27.17316 -54.54342 32200 ft 465 kts 228°
2026-05-04 13:36 27.12734 -54.59484 32196 ft 465 kts 228°
2026-05-04 13:36 27.08149 -54.64623 32195 ft 465 kts 228°
2026-05-04 13:37 27.03595 -54.69722 32193 ft 466 kts 228°
2026-05-04 13:37 26.98996 -54.74864 32197 ft 466 kts 227°
2026-05-04 13:38 26.94398 -54.80000 32198 ft 466 kts 228°
2026-05-04 13:38 26.89796 -54.85133 32194 ft 466 kts 228°
2026-05-04 13:39 26.85205 -54.90247 32188 ft 466 kts 227°
2026-05-04 13:39 26.80603 -54.95368 32197 ft 466 kts 227°
2026-05-04 13:40 26.76025 -55.00456 32200 ft 467 kts 227°
2026-05-04 13:40 26.71420 -55.05568 32200 ft 466 kts 227°
2026-05-04 13:41 26.66810 -55.10679 32189 ft 466 kts 227°
2026-05-04 13:41 26.62203 -55.15780 32195 ft 466 kts 227°
2026-05-04 13:42 26.55284 -55.23432 32200 ft 467 kts 227°
2026-05-04 13:42 26.50662 -55.28534 32198 ft 467 kts 227°
2026-05-04 13:43 26.46038 -55.33633 32194 ft 467 kts 227°
2026-05-04 13:43 26.41415 -55.38725 32195 ft 467 kts 227°
2026-05-04 13:44 26.36788 -55.43816 32197 ft 467 kts 227°
2026-05-04 13:44 26.32185 -55.48873 32196 ft 467 kts 227°
2026-05-04 13:45 26.27544 -55.53967 32191 ft 468 kts 227°
2026-05-04 13:45 26.22903 -55.59055 32199 ft 468 kts 227°
2026-05-04 13:46 26.18258 -55.64141 32195 ft 468 kts 227°
2026-05-04 13:46 26.13607 -55.69227 32194 ft 468 kts 227°
2026-05-04 13:47 26.08958 -55.74306 32193 ft 468 kts 227°
2026-05-04 13:47 26.04300 -55.79387 32201 ft 468 kts 227°
2026-05-04 13:48 25.99689 -55.84412 32194 ft 466 kts 227°
2026-05-04 13:48 25.95053 -55.89458 32193 ft 465 kts 227°
2026-05-04 13:49 25.90426 -55.94488 32190 ft 464 kts 227°
2026-05-04 13:49 25.86590 -55.98655 32193 ft 465 kts 227°
2026-05-04 13:50 25.81960 -56.03679 32196 ft 466 kts 227°
2026-05-04 13:50 25.77313 -56.08715 32196 ft 467 kts 227°
2026-05-04 13:51 25.72657 -56.13755 32196 ft 468 kts 227°
2026-05-04 13:51 25.67986 -56.18805 32207 ft 469 kts 226°
2026-05-04 13:52 25.60960 -56.26390 32201 ft 471 kts 226°
2026-05-04 13:53 25.56262 -56.31455 32206 ft 471 kts 226°
2026-05-04 13:53 25.51561 -56.36516 32181 ft 470 kts 226°
2026-05-04 13:54 25.44567 -56.44036 32185 ft 469 kts 226°
2026-05-04 13:55 25.37544 -56.51576 32183 ft 469 kts 226°
2026-05-04 13:55 25.30518 -56.59105 32199 ft 469 kts 226°
2026-05-04 13:56 25.25829 -56.64122 32200 ft 469 kts 226°
2026-05-04 13:57 25.18783 -56.71651 32196 ft 470 kts 226°
2026-05-04 13:58 25.09395 -56.81663 32171 ft 471 kts 226°
2026-05-04 13:58 25.02323 -56.89191 32192 ft 471 kts 226°
2026-05-04 13:59 24.97603 -56.94207 32182 ft 471 kts 226°
2026-05-04 14:00 24.90532 -57.01711 32186 ft 470 kts 226°
2026-05-04 14:00 24.83489 -57.09174 32193 ft 470 kts 226°
2026-05-04 14:01 24.78774 -57.14163 32197 ft 470 kts 226°
2026-05-04 14:02 24.71692 -57.21647 32188 ft 470 kts 226°
2026-05-04 14:02 24.66974 -57.26625 32176 ft 470 kts 226°
2026-05-04 14:03 24.62273 -57.31580 32188 ft 470 kts 226°
2026-05-04 14:03 24.57541 -57.36563 32186 ft 471 kts 226°
2026-05-04 14:04 24.50463 -57.44004 32190 ft 471 kts 226°
2026-05-04 14:04 24.45721 -57.48984 32176 ft 471 kts 225°
2026-05-04 14:05 24.38615 -57.56434 32182 ft 471 kts 225°
2026-05-04 14:06 24.33871 -57.61402 32182 ft 471 kts 225°
2026-05-04 14:06 24.29128 -57.66363 32184 ft 471 kts 225°
2026-05-04 14:07 24.24386 -57.71318 32173 ft 471 kts 225°
2026-05-04 14:07 24.19674 -57.76236 32180 ft 470 kts 225°
2026-05-04 14:08 24.14931 -57.81180 32182 ft 470 kts 225°
2026-05-04 14:08 24.10190 -57.86118 32183 ft 470 kts 225°
2026-05-04 14:09 24.03067 -57.93527 32185 ft 470 kts 225°
2026-05-04 14:10 23.95978 -58.00888 32181 ft 470 kts 225°
2026-05-04 14:10 23.91229 -58.05813 32182 ft 469 kts 225°
2026-05-04 14:11 23.86491 -58.10721 32182 ft 469 kts 225°
2026-05-04 14:11 23.79409 -58.18047 32181 ft 469 kts 225°
2026-05-04 14:12 23.74666 -58.22948 32185 ft 469 kts 225°
2026-05-04 14:13 23.67541 -58.30300 32179 ft 469 kts 225°
2026-05-04 14:13 23.62786 -58.35200 32179 ft 469 kts 225°
2026-05-04 14:14 23.58040 -58.40086 32172 ft 469 kts 225°
2026-05-04 14:14 23.50909 -58.47416 32178 ft 470 kts 225°
2026-05-04 14:15 23.41423 -58.57150 32175 ft 469 kts 225°
2026-05-04 14:16 23.34288 -58.64459 32168 ft 469 kts 225°
2026-05-04 14:17 23.27175 -58.71734 32172 ft 470 kts 225°
2026-05-04 14:18 23.20017 -58.79044 32172 ft 471 kts 225°
2026-05-04 14:19 23.10451 -58.88794 32172 ft 472 kts 224°
2026-05-04 14:19 23.05689 -58.93641 32173 ft 472 kts 224°
2026-05-04 14:20 23.00887 -58.98524 32170 ft 473 kts 224°
2026-05-04 14:20 22.96079 -59.03407 32176 ft 473 kts 224°
2026-05-04 14:21 22.88900 -59.10689 32162 ft 472 kts 224°
2026-05-04 14:21 22.84104 -59.15548 32174 ft 471 kts 224°
2026-05-04 14:22 22.79308 -59.20402 32167 ft 471 kts 224°
2026-05-04 14:22 22.74513 -59.25250 32167 ft 471 kts 224°
2026-05-04 14:23 22.67313 -59.32521 32165 ft 472 kts 224°
2026-05-04 14:24 22.62509 -59.37366 32166 ft 472 kts 224°
2026-05-04 14:24 22.57694 -59.42218 32167 ft 473 kts 224°
2026-05-04 14:25 22.52910 -59.47034 32170 ft 473 kts 224°
2026-05-04 14:25 22.45686 -59.54296 32158 ft 473 kts 224°
2026-05-04 14:26 22.40868 -59.59134 32172 ft 473 kts 224°
2026-05-04 14:26 22.36042 -59.63975 32168 ft 473 kts 224°
2026-05-04 14:27 22.31222 -59.68805 32162 ft 472 kts 224°
2026-05-04 14:27 22.26426 -59.73607 32164 ft 472 kts 224°
2026-05-04 14:28 22.21614 -59.78420 32155 ft 472 kts 224°
2026-05-04 14:28 22.16802 -59.83229 32166 ft 472 kts 224°
2026-05-04 14:29 22.07177 -59.92838 32163 ft 472 kts 224°
2026-05-04 14:30 22.02357 -59.97645 32158 ft 472 kts 224°
2026-05-04 14:31 21.95023 -60.04741 32160 ft 472 kts 222°
2026-05-04 14:32 21.85041 -60.13948 32160 ft 472 kts 222°
2026-05-04 14:32 21.80099 -60.18540 32165 ft 472 kts 222°
2026-05-04 14:33 21.75127 -60.23170 32158 ft 472 kts 222°
2026-05-04 14:33 21.70167 -60.27788 32158 ft 471 kts 222°
2026-05-04 14:34 21.65215 -60.32391 32157 ft 470 kts 222°
2026-05-04 14:34 21.60299 -60.36956 32157 ft 470 kts 222°
2026-05-04 14:35 21.55348 -60.41548 32158 ft 470 kts 222°
2026-05-04 14:35 21.50398 -60.46136 32153 ft 470 kts 222°
2026-05-04 14:36 21.45439 -60.50729 32159 ft 470 kts 222°
2026-05-04 14:36 21.40489 -60.55308 32157 ft 470 kts 222°
2026-05-04 14:37 21.35573 -60.59851 32155 ft 469 kts 222°
2026-05-04 14:37 21.30626 -60.64420 32154 ft 469 kts 222°
2026-05-04 14:38 21.25682 -60.68980 32149 ft 469 kts 222°
2026-05-04 14:38 21.21554 -60.72786 32155 ft 469 kts 222°
2026-05-04 14:39 21.16598 -60.77350 32161 ft 470 kts 222°
2026-05-04 14:39 21.11638 -60.81914 32152 ft 469 kts 223°
2026-05-04 14:40 21.04224 -60.88728 32151 ft 468 kts 221°
2026-05-04 14:40 20.99280 -60.93267 32148 ft 468 kts 221°
2026-05-04 14:41 20.94356 -60.97783 32155 ft 469 kts 222°
2026-05-04 14:42 20.84427 -61.06878 32154 ft 470 kts 221°
2026-05-04 14:42 20.79460 -61.11421 32148 ft 468 kts 222°
2026-05-04 14:43 20.74538 -61.15919 32146 ft 468 kts 221°
2026-05-04 14:43 20.69584 -61.20443 32153 ft 468 kts 222°
2026-05-04 14:44 20.64621 -61.24970 32152 ft 468 kts 222°
2026-05-04 14:44 20.59662 -61.29490 32150 ft 469 kts 222°
2026-05-04 14:45 20.54732 -61.33980 32152 ft 469 kts 223°
2026-05-04 14:45 20.49763 -61.38500 32141 ft 469 kts 223°
2026-05-04 14:46 20.44788 -61.43024 32154 ft 469 kts 222°
2026-05-04 14:46 20.39816 -61.47539 32148 ft 469 kts 222°
2026-05-04 14:47 20.34838 -61.52056 32147 ft 469 kts 222°
2026-05-04 14:47 20.29867 -61.56563 32147 ft 469 kts 222°
2026-05-04 14:48 20.24926 -61.61039 32144 ft 470 kts 221°
2026-05-04 14:48 20.23244 -61.62563 32143 ft 470 kts 221°